CEB792 RPME-RPLL

Flight info

Callsign CEB792
Flight time 1h 31m
Altitude 38000
Route BAMP1B JARED W14 MCT W11 CONDE COND1A
Aircraft A21N/M-SDE2E3FGHIJ1RWXY/C

Departure

Time 2026-05-05 04:58
Airport Bancasi Airport (RPME)

Arrival

Time 2026-05-05 06:29
Airport Ninoy Aquino International Airport (RPLL)
Time Latitude Longitude Altitude Speed Heading
2026-05-05 04:33 8.94868 125.48159 48 ft 0 kts 236°
2026-05-05 04:48 8.94867 125.48157 48 ft 0 kts 246°
2026-05-05 04:48 8.94867 125.48156 48 ft 0 kts 247°
2026-05-05 04:49 8.94866 125.48151 47 ft 1 kts 263°
2026-05-05 04:50 8.94872 125.48138 47 ft 2 kts 315°
2026-05-05 04:50 8.94881 125.48134 47 ft 0 kts 351°
2026-05-05 04:50 8.94883 125.48134 47 ft 0 kts 351°
2026-05-05 04:50 8.94894 125.48132 47 ft 2 kts 354°
2026-05-05 04:51 8.94916 125.48128 47 ft 4 kts 346°
2026-05-05 04:51 8.94937 125.48122 47 ft 0 kts 338°
2026-05-05 04:52 8.94941 125.48120 47 ft 1 kts 338°
2026-05-05 04:52 8.94955 125.48114 47 ft 2 kts 338°
2026-05-05 04:53 8.94978 125.48106 46 ft 4 kts 340°
2026-05-05 04:53 8.95011 125.48108 46 ft 5 kts 37°
2026-05-05 04:53 8.95018 125.48146 46 ft 6 kts 103°
2026-05-05 04:53 8.95002 125.48185 47 ft 5 kts 116°
2026-05-05 04:54 8.94984 125.48222 47 ft 6 kts 116°
2026-05-05 04:54 8.94965 125.48261 48 ft 6 kts 116°
2026-05-05 04:54 8.94945 125.48302 48 ft 6 kts 116°
2026-05-05 04:54 8.94923 125.48345 49 ft 7 kts 116°
2026-05-05 04:55 8.94897 125.48397 50 ft 9 kts 116°
2026-05-05 04:55 8.94867 125.48460 50 ft 10 kts 115°
2026-05-05 04:55 8.94834 125.48530 51 ft 11 kts 115°
2026-05-05 04:55 8.94818 125.48606 53 ft 8 kts 99°
2026-05-05 04:56 8.94790 125.48645 52 ft 5 kts 182°
2026-05-05 04:56 8.94779 125.48617 52 ft 3 kts 308°
2026-05-05 04:56 8.94798 125.48595 52 ft 0 kts 300°
2026-05-05 04:57 8.94799 125.48593 52 ft 0 kts 300°
2026-05-05 04:57 8.94843 125.48507 51 ft 46 kts 297°
2026-05-05 04:57 8.95104 125.47979 44 ft 118 kts 296°
2026-05-05 04:57 8.95545 125.47057 107 ft 164 kts 296°
2026-05-05 04:58 8.96010 125.46061 818 ft 153 kts 303°
2026-05-05 04:58 8.96605 125.45255 1544 ft 141 kts 317°
2026-05-05 04:58 8.97283 125.44531 1959 ft 148 kts 314°
2026-05-05 04:58 8.98001 125.43708 2262 ft 162 kts 314°
2026-05-05 04:59 8.98783 125.42836 2575 ft 177 kts 315°
2026-05-05 04:59 8.99668 125.41880 2891 ft 195 kts 315°
2026-05-05 04:59 9.00661 125.40833 3190 ft 217 kts 316°
2026-05-05 04:59 9.01745 125.39702 3616 ft 235 kts 315°
2026-05-05 05:00 9.02918 125.38486 4063 ft 252 kts 315°
2026-05-05 05:00 9.04188 125.37161 4591 ft 267 kts 315°
2026-05-05 05:00 9.05475 125.35812 5380 ft 271 kts 315°
2026-05-05 05:00 9.06783 125.34440 6237 ft 273 kts 315°
2026-05-05 05:01 9.08094 125.33066 7077 ft 275 kts 314°
2026-05-05 05:01 9.09418 125.31677 7920 ft 278 kts 314°
2026-05-05 05:01 9.10748 125.30286 8755 ft 280 kts 314°
2026-05-05 05:01 9.12104 125.28879 9583 ft 282 kts 314°
2026-05-05 05:02 9.13473 125.27457 10373 ft 286 kts 314°
2026-05-05 05:02 9.14886 125.25983 10830 ft 301 kts 314°
2026-05-05 05:02 9.16383 125.24414 11179 ft 319 kts 313°
2026-05-05 05:02 9.17980 125.22737 11510 ft 337 kts 313°
2026-05-05 05:03 9.19626 125.21011 12046 ft 346 kts 313°
2026-05-05 05:03 9.21282 125.19273 12774 ft 349 kts 313°
2026-05-05 05:03 9.22970 125.17497 13477 ft 353 kts 313°
2026-05-05 05:03 9.24677 125.15698 14150 ft 357 kts 313°
2026-05-05 05:04 9.26407 125.13877 14815 ft 361 kts 313°
2026-05-05 05:04 9.28155 125.12038 15470 ft 365 kts 313°
2026-05-05 05:04 9.29903 125.10201 16104 ft 369 kts 313°
2026-05-05 05:04 9.31703 125.08312 16736 ft 374 kts 312°
2026-05-05 05:05 9.33512 125.06412 17352 ft 378 kts 312°
2026-05-05 05:05 9.35318 125.04515 17949 ft 382 kts 312°
2026-05-05 05:05 9.37166 125.02574 18542 ft 386 kts 312°
2026-05-05 05:05 9.39052 125.00593 19119 ft 390 kts 312°
2026-05-05 05:06 9.40922 124.98629 19680 ft 394 kts 312°
2026-05-05 05:06 9.42838 124.96615 20243 ft 398 kts 312°
2026-05-05 05:06 9.44767 124.94589 20802 ft 403 kts 313°
2026-05-05 05:06 9.46689 124.92540 21355 ft 406 kts 311°
2026-05-05 05:07 9.48603 124.90435 21906 ft 410 kts 311°
2026-05-05 05:07 9.50553 124.88274 22450 ft 414 kts 311°
2026-05-05 05:07 9.52491 124.86126 22976 ft 418 kts 311°
2026-05-05 05:07 9.54443 124.83965 23492 ft 422 kts 311°
2026-05-05 05:08 9.56435 124.81760 24001 ft 425 kts 311°
2026-05-05 05:08 9.58431 124.79554 24493 ft 429 kts 311°
2026-05-05 05:08 9.60470 124.77300 24979 ft 432 kts 311°
2026-05-05 05:08 9.62476 124.75084 25443 ft 435 kts 312°
2026-05-05 05:09 9.63845 124.73572 25751 ft 437 kts 312°
2026-05-05 05:09 9.66605 124.70521 26349 ft 441 kts 312°
2026-05-05 05:09 9.68678 124.68229 26782 ft 444 kts 312°
2026-05-05 05:09 9.70758 124.65927 27196 ft 447 kts 312°
2026-05-05 05:10 9.72858 124.63605 27595 ft 450 kts 312°
2026-05-05 05:10 9.74977 124.61261 27976 ft 452 kts 312°
2026-05-05 05:10 9.77108 124.58907 28339 ft 455 kts 312°
2026-05-05 05:10 9.78513 124.57357 28569 ft 456 kts 312°
2026-05-05 05:11 9.81395 124.54176 29013 ft 459 kts 312°
2026-05-05 05:11 9.83539 124.51808 29318 ft 461 kts 312°
2026-05-05 05:11 9.85715 124.49405 29607 ft 463 kts 312°
2026-05-05 05:11 9.87910 124.46980 29881 ft 465 kts 312°
2026-05-05 05:12 9.90079 124.44581 30192 ft 465 kts 312°
2026-05-05 05:12 9.92252 124.42178 30565 ft 464 kts 312°
2026-05-05 05:12 9.94414 124.39786 30930 ft 463 kts 312°
2026-05-05 05:12 9.96592 124.37376 31270 ft 462 kts 312°
2026-05-05 05:13 9.98763 124.34972 31602 ft 461 kts 312°
2026-05-05 05:13 10.00896 124.32603 31925 ft 460 kts 312°
2026-05-05 05:13 10.03046 124.30209 32241 ft 459 kts 312°
2026-05-05 05:13 10.05197 124.27820 32557 ft 458 kts 312°
2026-05-05 05:14 10.07349 124.25430 32866 ft 457 kts 312°
2026-05-05 05:14 10.09468 124.23081 33161 ft 457 kts 312°
2026-05-05 05:14 10.11625 124.20697 33458 ft 456 kts 313°
2026-05-05 05:14 10.13776 124.18330 33746 ft 455 kts 313°
2026-05-05 05:15 10.15180 124.16785 33932 ft 454 kts 313°
2026-05-05 05:15 10.18021 124.13647 34307 ft 453 kts 312°
2026-05-05 05:15 10.20147 124.11292 34566 ft 453 kts 312°
2026-05-05 05:15 10.22278 124.08927 34821 ft 452 kts 312°
2026-05-05 05:16 10.24374 124.06600 35080 ft 451 kts 312°
2026-05-05 05:16 10.26489 124.04253 35326 ft 451 kts 312°
2026-05-05 05:16 10.28636 124.01949 35558 ft 450 kts 315°
2026-05-05 05:16 10.30119 124.00488 35711 ft 450 kts 317°
2026-05-05 05:17 10.31685 123.99056 35865 ft 449 kts 319°
2026-05-05 05:18 10.43461 123.90430 36635 ft 451 kts 326°
2026-05-05 05:18 10.46069 123.88624 36767 ft 452 kts 326°
2026-05-05 05:18 10.48639 123.86842 36889 ft 453 kts 326°
2026-05-05 05:18 10.51268 123.85016 37017 ft 454 kts 326°
2026-05-05 05:19 10.53851 123.83220 37141 ft 454 kts 326°
2026-05-05 05:19 10.56448 123.81414 37260 ft 455 kts 326°
2026-05-05 05:19 10.57327 123.80802 37299 ft 455 kts 326°
2026-05-05 05:19 10.61672 123.77778 37478 ft 456 kts 326°
2026-05-05 05:20 10.64285 123.75960 37571 ft 457 kts 326°
2026-05-05 05:20 10.69519 123.72320 37767 ft 458 kts 326°
2026-05-05 05:21 10.74765 123.68671 37862 ft 460 kts 326°
2026-05-05 05:21 10.80036 123.64999 37868 ft 460 kts 326°
2026-05-05 05:22 10.85304 123.61327 37870 ft 460 kts 326°
2026-05-05 05:22 10.90563 123.57660 37870 ft 460 kts 325°
2026-05-05 05:23 10.95808 123.53999 37869 ft 460 kts 325°
2026-05-05 05:23 11.01096 123.50309 37870 ft 460 kts 325°
2026-05-05 05:24 11.06345 123.46651 37870 ft 460 kts 325°
2026-05-05 05:24 11.11622 123.42969 37870 ft 460 kts 325°
2026-05-05 05:25 11.16859 123.39333 37870 ft 460 kts 325°
2026-05-05 05:25 11.22116 123.35671 37870 ft 460 kts 325°
2026-05-05 05:26 11.27377 123.31976 37873 ft 460 kts 325°
2026-05-05 05:26 11.32615 123.28287 37879 ft 460 kts 325°
2026-05-05 05:27 11.37867 123.24600 37886 ft 460 kts 325°
2026-05-05 05:27 11.45755 123.19073 37892 ft 460 kts 325°
2026-05-05 05:28 11.48378 123.17236 37893 ft 459 kts 325°
2026-05-05 05:28 11.56241 123.11729 37895 ft 459 kts 325°
2026-05-05 05:29 11.61504 123.08038 37895 ft 460 kts 325°
2026-05-05 05:29 11.66741 123.04364 37895 ft 460 kts 325°
2026-05-05 05:30 11.71992 123.00677 37895 ft 460 kts 325°
2026-05-05 05:30 11.77247 122.96986 37895 ft 460 kts 325°
2026-05-05 05:31 11.82513 122.93285 37895 ft 460 kts 325°
2026-05-05 05:31 11.87776 122.89585 37895 ft 460 kts 325°
2026-05-05 05:32 11.93040 122.85881 37886 ft 460 kts 325°
2026-05-05 05:32 11.98275 122.82196 37878 ft 460 kts 325°
2026-05-05 05:33 12.03542 122.78487 37873 ft 460 kts 325°
2026-05-05 05:33 12.08765 122.74808 37871 ft 460 kts 324°
2026-05-05 05:34 12.14036 122.71090 37870 ft 460 kts 325°
2026-05-05 05:34 12.19285 122.67422 37870 ft 460 kts 325°
2026-05-05 05:35 12.24530 122.63728 37870 ft 460 kts 324°
2026-05-05 05:35 12.29791 122.60001 37870 ft 460 kts 324°
2026-05-05 05:36 12.35027 122.56297 37870 ft 460 kts 324°
2026-05-05 05:36 12.40269 122.52598 37870 ft 460 kts 325°
2026-05-05 05:37 12.45553 122.48875 37870 ft 460 kts 325°
2026-05-05 05:37 12.50784 122.45180 37870 ft 460 kts 325°
2026-05-05 05:38 12.56039 122.41454 37869 ft 460 kts 324°
2026-05-05 05:38 12.58663 122.39595 37727 ft 461 kts 325°
2026-05-05 05:38 12.61268 122.37759 37478 ft 458 kts 325°
2026-05-05 05:40 12.74401 122.28428 36206 ft 449 kts 324°
2026-05-05 05:40 12.76958 122.26609 35957 ft 449 kts 324°
2026-05-05 05:40 12.79516 122.24791 35708 ft 449 kts 324°
2026-05-05 05:40 12.82105 122.22953 35456 ft 450 kts 324°
2026-05-05 05:41 12.84667 122.21135 35206 ft 451 kts 324°
2026-05-05 05:41 12.87235 122.19314 34958 ft 451 kts 324°
2026-05-05 05:41 12.89813 122.17482 34708 ft 452 kts 324°
2026-05-05 05:41 12.92380 122.15657 34459 ft 453 kts 324°
2026-05-05 05:42 12.94946 122.13833 34211 ft 453 kts 324°
2026-05-05 05:42 12.97553 122.11979 33959 ft 454 kts 324°
2026-05-05 05:42 13.00140 122.10139 33710 ft 455 kts 324°
2026-05-05 05:42 13.02720 122.08303 33461 ft 457 kts 324°
2026-05-05 05:43 13.05321 122.06452 33212 ft 459 kts 324°
2026-05-05 05:43 13.07976 122.04562 32958 ft 461 kts 325°
2026-05-05 05:43 13.10602 122.02691 32708 ft 462 kts 325°
2026-05-05 05:43 13.13226 122.00831 32460 ft 464 kts 325°
2026-05-05 05:44 13.15880 121.98953 32210 ft 465 kts 325°
2026-05-05 05:44 13.18555 121.97057 31958 ft 466 kts 325°
2026-05-05 05:44 13.21203 121.95175 31709 ft 467 kts 325°
2026-05-05 05:44 13.23855 121.93288 31460 ft 467 kts 325°
2026-05-05 05:45 13.26543 121.91373 31210 ft 468 kts 325°
2026-05-05 05:45 13.28295 121.90125 31046 ft 469 kts 325°
2026-05-05 05:45 13.29210 121.89472 30960 ft 469 kts 325°
2026-05-05 05:46 13.39918 121.81831 29709 ft 472 kts 324°
2026-05-05 05:46 13.42611 121.79908 29127 ft 466 kts 324°
2026-05-05 05:46 13.45225 121.78040 28704 ft 463 kts 324°
2026-05-05 05:47 13.47863 121.76155 28216 ft 460 kts 324°
2026-05-05 05:47 13.50476 121.74287 27715 ft 455 kts 324°
2026-05-05 05:47 13.53061 121.72438 27210 ft 451 kts 324°
2026-05-05 05:47 13.55599 121.70623 26708 ft 447 kts 324°
2026-05-05 05:48 13.58144 121.68801 26197 ft 443 kts 324°
2026-05-05 05:48 13.60635 121.67017 25695 ft 439 kts 324°
2026-05-05 05:48 13.63145 121.65218 25190 ft 435 kts 324°
2026-05-05 05:48 13.65602 121.63455 24692 ft 431 kts 323°
2026-05-05 05:49 13.68020 121.61716 24198 ft 427 kts 323°
2026-05-05 05:49 13.70441 121.59979 23706 ft 423 kts 323°
2026-05-05 05:49 13.72843 121.58260 23217 ft 420 kts 323°
2026-05-05 05:49 13.75238 121.56554 22725 ft 416 kts 323°
2026-05-05 05:50 13.76799 121.55441 22404 ft 414 kts 323°
2026-05-05 05:50 13.79912 121.53211 21758 ft 409 kts 323°
2026-05-05 05:50 13.82240 121.51538 21273 ft 405 kts 323°
2026-05-05 05:50 13.84516 121.49905 20792 ft 402 kts 323°
2026-05-05 05:51 13.86797 121.48273 20312 ft 398 kts 323°
2026-05-05 05:51 13.89039 121.46664 19834 ft 394 kts 323°
2026-05-05 05:51 13.91283 121.45053 19355 ft 391 kts 323°
2026-05-05 05:51 13.93493 121.43465 18878 ft 388 kts 323°
2026-05-05 05:52 13.95684 121.41891 18405 ft 384 kts 323°
2026-05-05 05:52 13.97879 121.40313 17927 ft 381 kts 323°
2026-05-05 05:52 14.00013 121.38779 17460 ft 378 kts 323°
2026-05-05 05:52 14.02177 121.37223 16984 ft 374 kts 323°
2026-05-05 05:53 14.04271 121.35716 16522 ft 371 kts 323°
2026-05-05 05:53 14.06391 121.34189 16049 ft 368 kts 323°
2026-05-05 05:53 14.08446 121.32700 15589 ft 365 kts 323°
2026-05-05 05:53 14.10529 121.31194 15122 ft 362 kts 323°
2026-05-05 05:54 14.12579 121.29722 14660 ft 359 kts 323°
2026-05-05 05:54 14.14608 121.28268 14200 ft 356 kts 323°
2026-05-05 05:54 14.16624 121.26822 13739 ft 353 kts 323°
2026-05-05 05:54 14.18616 121.25391 13283 ft 350 kts 323°
2026-05-05 05:55 14.20593 121.23970 12826 ft 347 kts 323°
2026-05-05 05:55 14.22569 121.22547 12367 ft 344 kts 323°
2026-05-05 05:55 14.24525 121.21139 11924 ft 341 kts 324°
2026-05-05 05:55 14.26462 121.19745 11485 ft 338 kts 324°
2026-05-05 05:56 14.28366 121.18369 11049 ft 335 kts 324°
2026-05-05 05:56 14.30275 121.16998 10623 ft 337 kts 324°
2026-05-05 05:56 14.31560 121.16077 10337 ft 335 kts 324°
2026-05-05 05:57 14.33451 121.14709 9910 ft 330 kts 325°
2026-05-05 05:57 14.37698 121.11572 8916 ft 318 kts 325°
2026-05-05 05:57 14.39462 121.10248 8491 ft 313 kts 325°
2026-05-05 05:57 14.41216 121.08926 8062 ft 309 kts 324°
2026-05-05 05:58 14.42939 121.07618 7634 ft 305 kts 324°
2026-05-05 05:58 14.44629 121.06329 7209 ft 302 kts 325°
2026-05-05 05:58 14.46289 121.05048 6782 ft 299 kts 324°
2026-05-05 05:58 14.47923 121.03708 6343 ft 298 kts 316°
2026-05-05 05:59 14.49112 121.01984 5919 ft 298 kts 301°
2026-05-05 05:59 14.50063 121.00082 5495 ft 296 kts 298°
2026-05-05 05:59 14.50949 120.98193 5104 ft 293 kts 297°
2026-05-05 05:59 14.51815 120.96323 4999 ft 279 kts 297°
2026-05-05 06:00 14.52642 120.94533 4992 ft 278 kts 297°
2026-05-05 06:00 14.53478 120.92722 4990 ft 281 kts 297°
2026-05-05 06:00 14.54314 120.90912 4987 ft 278 kts 298°
2026-05-05 06:00 14.55144 120.89117 4986 ft 277 kts 297°
2026-05-05 06:01 14.55971 120.87330 4987 ft 280 kts 298°
2026-05-05 06:01 14.56815 120.85516 4988 ft 280 kts 298°
2026-05-05 06:01 14.57667 120.83688 4989 ft 280 kts 298°
2026-05-05 06:01 14.58505 120.81891 4991 ft 280 kts 298°
2026-05-05 06:02 14.59357 120.80068 4989 ft 281 kts 298°
2026-05-05 06:02 14.60203 120.78256 4990 ft 279 kts 298°
2026-05-05 06:02 14.61048 120.76475 4981 ft 269 kts 302°
2026-05-05 06:02 14.62277 120.75155 4961 ft 247 kts 335°
2026-05-05 06:03 14.63824 120.74709 4966 ft 227 kts
2026-05-05 06:03 14.65371 120.74914 4982 ft 223 kts 21°
2026-05-05 06:03 14.66721 120.75671 4981 ft 222 kts 41°
2026-05-05 06:03 14.67702 120.76851 4972 ft 213 kts 61°
2026-05-05 06:04 14.68197 120.78291 4981 ft 213 kts 81°
2026-05-05 06:04 14.68312 120.79803 5136 ft 213 kts 87°
2026-05-05 06:04 14.68117 120.81323 5005 ft 214 kts 105°
2026-05-05 06:04 14.67378 120.82656 4654 ft 215 kts 126°
2026-05-05 06:05 14.66414 120.83816 4365 ft 210 kts 129°
2026-05-05 06:05 14.65447 120.84916 4071 ft 205 kts 130°
2026-05-05 06:05 14.64515 120.85973 3812 ft 199 kts 129°
2026-05-05 06:05 14.63590 120.87038 3533 ft 194 kts 129°
2026-05-05 06:06 14.62715 120.88061 3282 ft 188 kts 128°
2026-05-05 06:06 14.61876 120.89052 3024 ft 182 kts 127°
2026-05-05 06:06 14.61059 120.90031 2725 ft 179 kts 128°
2026-05-05 06:06 14.60245 120.90995 2411 ft 175 kts 128°
2026-05-05 06:07 14.59721 120.91615 2232 ft 167 kts 129°
2026-05-05 06:07 14.59476 120.91904 2149 ft 163 kts 129°
2026-05-05 06:07 14.59227 120.92197 2069 ft 159 kts 129°
2026-05-05 06:08 14.58983 120.92484 1996 ft 155 kts 129°
2026-05-05 06:09 14.54412 120.97844 749 ft 133 kts 129°
2026-05-05 06:09 14.53786 120.98563 528 ft 133 kts 128°
2026-05-05 06:09 14.53388 120.99046 449 ft 134 kts 126°
2026-05-05 06:09 14.52666 121.00080 200 ft 131 kts 134°
2026-05-05 06:10 14.52245 121.00532 127 ft 132 kts 137°
2026-05-05 06:10 14.50637 121.02240 896 ft 164 kts 128°
2026-05-05 06:10 14.49865 121.03188 1172 ft 179 kts 127°
2026-05-05 06:11 14.49036 121.04215 1675 ft 189 kts 128°
2026-05-05 06:11 14.48187 121.05237 2320 ft 190 kts 128°
2026-05-05 06:11 14.47298 121.06301 2768 ft 205 kts 128°
2026-05-05 06:11 14.46334 121.07443 3200 ft 222 kts 130°
2026-05-05 06:13 14.40731 121.04823 3066 ft 243 kts 277°
2026-05-05 06:13 14.41277 121.03207 3014 ft 240 kts 308°
2026-05-05 06:13 14.42484 121.02090 2967 ft 233 kts 338°
2026-05-05 06:13 14.44037 121.01788 2903 ft 227 kts 11°
2026-05-05 06:14 14.45440 121.02409 2875 ft 223 kts 40°
2026-05-05 06:14 14.46702 121.03350 2822 ft 224 kts 25°
2026-05-05 06:14 14.47716 121.03592 2755 ft 225 kts 358°
2026-05-05 06:15 14.52557 120.96574 3687 ft 214 kts 298°
2026-05-05 06:16 14.53162 120.95268 3709 ft 196 kts 297°
2026-05-05 06:16 14.53726 120.94034 3669 ft 178 kts 298°
2026-05-05 06:16 14.54212 120.92938 3644 ft 163 kts 298°
2026-05-05 06:16 14.54685 120.91870 3677 ft 163 kts 298°
2026-05-05 06:17 14.55002 120.91154 3685 ft 162 kts 298°
2026-05-05 06:17 14.55622 120.89749 3677 ft 164 kts 297°
2026-05-05 06:17 14.56112 120.88673 3694 ft 165 kts 297°
2026-05-05 06:17 14.56586 120.87614 3715 ft 163 kts 298°
2026-05-05 06:18 14.57051 120.86556 3700 ft 161 kts 298°
2026-05-05 06:18 14.57516 120.85497 3681 ft 162 kts 298°
2026-05-05 06:18 14.57977 120.84441 3694 ft 160 kts 298°
2026-05-05 06:18 14.58430 120.83392 3691 ft 159 kts 298°
2026-05-05 06:19 14.58884 120.82342 3674 ft 161 kts 297°
2026-05-05 06:19 14.59352 120.81282 3700 ft 162 kts 298°
2026-05-05 06:19 14.59821 120.80225 3685 ft 164 kts 297°
2026-05-05 06:19 14.60309 120.79153 3690 ft 165 kts 298°
2026-05-05 06:20 14.60794 120.78084 3703 ft 163 kts 298°
2026-05-05 06:20 14.61272 120.77015 3693 ft 163 kts 298°
2026-05-05 06:20 14.61757 120.75947 3684 ft 164 kts 301°
2026-05-05 06:20 14.62524 120.75169 3654 ft 147 kts 349°
2026-05-05 06:21 14.63445 120.75365 3667 ft 137 kts 39°
2026-05-05 06:21 14.64080 120.76096 3696 ft 137 kts 54°
2026-05-05 06:21 14.64650 120.76891 3692 ft 137 kts 54°
2026-05-05 06:21 14.65235 120.77663 3690 ft 137 kts 53°
2026-05-05 06:22 14.65840 120.78426 3690 ft 137 kts 52°
2026-05-05 06:22 14.66461 120.79192 3677 ft 138 kts 51°
2026-05-05 06:22 14.67013 120.79993 3495 ft 136 kts 64°
2026-05-05 06:22 14.67311 120.80911 3449 ft 137 kts 80°
2026-05-05 06:23 14.67311 120.81899 3386 ft 139 kts 98°
2026-05-05 06:23 14.67013 120.82858 3337 ft 138 kts 114°
2026-05-05 06:23 14.66471 120.83664 3291 ft 139 kts 126°
2026-05-05 06:23 14.65824 120.84438 3273 ft 142 kts 127°
2026-05-05 06:24 14.65175 120.85198 3236 ft 141 kts 129°
2026-05-05 06:24 14.64517 120.85953 3218 ft 141 kts 129°
2026-05-05 06:24 14.63874 120.86696 3126 ft 139 kts 128°
2026-05-05 06:24 14.63234 120.87446 3045 ft 139 kts 127°
2026-05-05 06:25 14.62591 120.88216 2973 ft 141 kts 126°
2026-05-05 06:25 14.61962 120.88976 2887 ft 138 kts 127°
2026-05-05 06:25 14.61330 120.89726 2751 ft 140 kts 127°
2026-05-05 06:25 14.60702 120.90479 2525 ft 136 kts 128°
2026-05-05 06:26 14.60073 120.91219 2327 ft 138 kts 127°
2026-05-05 06:26 14.59443 120.91963 2144 ft 138 kts 128°
2026-05-05 06:26 14.58801 120.92710 1964 ft 138 kts 127°
2026-05-05 06:26 14.58175 120.93455 1782 ft 136 kts 127°
2026-05-05 06:27 14.57555 120.94189 1606 ft 137 kts 125°
2026-05-05 06:27 14.56413 120.95743 1290 ft 136 kts 124°
2026-05-05 06:27 14.55820 120.96494 1135 ft 134 kts 129°
2026-05-05 06:28 14.55192 120.97212 952 ft 134 kts 128°
2026-05-05 06:28 14.54575 120.97937 771 ft 134 kts 129°
2026-05-05 06:28 14.53960 120.98653 552 ft 132 kts 134°
2026-05-05 06:28 14.53350 120.99361 375 ft 133 kts 132°
2026-05-05 06:29 14.52926 120.99824 268 ft 135 kts 135°
2026-05-05 06:29 14.52058 121.00721 98 ft 127 kts 135°
2026-05-05 06:29 14.51559 121.01238 84 ft 62 kts 136°
2026-05-05 06:29 14.51398 121.01401 84 ft 14 kts 136°
2026-05-05 06:30 14.51354 121.01451 84 ft 6 kts 122°
2026-05-05 06:30 14.51343 121.01499 84 ft 7 kts 74°
2026-05-05 06:30 14.51383 121.01547 84 ft 9 kts 46°
2026-05-05 06:30 14.51440 121.01597 84 ft 11 kts 33°
2026-05-05 06:31 14.51506 121.01654 84 ft 13 kts 45°
2026-05-05 06:31 14.51572 121.01722 84 ft 13 kts 44°
2026-05-05 06:31 14.51617 121.01769 84 ft 13 kts 40°
2026-05-05 06:31 14.51674 121.01783 84 ft 10 kts 348°
2026-05-05 06:32 14.51749 121.01723 84 ft 0 kts 314°
2026-05-05 06:32 14.51756 121.01716 84 ft 2 kts 314°
2026-05-05 06:32 14.51772 121.01698 84 ft 4 kts 310°
2026-05-05 06:32 14.51774 121.01671 84 ft 3 kts 244°
2026-05-05 06:33 14.51752 121.01644 84 ft 5 kts 226°
2026-05-05 06:33 14.51736 121.01627 84 ft 0 kts 225°